Location: Aragoneses
(41.0275°N, 4.3847°W)
Time: 05:13:28
(UTC+00:00)

Cosmos 2369 - Pass Details

Date: 11 December 2025
Orbit: 838 x 854 km, 71.0° (Epoch: 13 January)

Event Time Altitude Azimuth Distance (km) Brightness Sun altitude
Rises 18:20:27 0° 185° (S) 3,403 7.1 -16.6°
Reaches altitude 10° 18:22:57 10° 180° (S) 2,473 6.3 -17.1°
Maximum altitude 18:28:23 49° 107° (ESE) 1,095 3.9 -18.0°
Enters shadow 18:30:59 29° 50° (NE) 1,527 4.5 -18.5°
